This is the latest recevied weather packets stored in our database for station/object K5GTX. If no packets are shown the sender has not sent any weather packets the latest 10 day(s).
| Time | Temp. | Humidity | Pressure | Rain* | Wind** | Luminosity | Snow |
|---|---|---|---|---|---|---|---|
| 1777849568 | 28.33° C | 99% | 1022.2 hPa | 0 mm | - | 221 W/m² | - |
| 1777849265 | 28.33° C | 99% | 1022 hPa | 0 mm | - | 261 W/m² | - |
| 1777848962 | 27.78° C | 99% | 1022 hPa | 0 mm | - | 284 W/m² | - |
| 1777848657 | 28.33° C | 99% | 1021.9 hPa | 0 mm | - | 303 W/m² | - |
| 1777848355 | 28.33° C | 99% | 1022 hPa | 0 mm | - | 312 W/m² | - |
| 1777848053 | 28.89° C | 99% | 1022 hPa | 0 mm | - | 319 W/m² | - |
| 1777847750 | 27.78° C | 99% | 1022 hPa | 0 mm | - | 308 W/m² | - |
| 1777847445 | 27.78° C | 99% | 1022 hPa | 0 mm | - | 199 W/m² | - |
| 1777847144 | 27.78° C | 99% | 1022.3 hPa | 0 mm | - | 365 W/m² | - |
| 1777846842 | 27.78° C | 99% | 1022.3 hPa | 0 mm | - | 371 W/m² | - |
| 1777846539 | 28.33° C | 99% | 1022.2 hPa | 0 mm | - | 395 W/m² | - |
| 1777846237 | 28.33° C | 99% | 1022.4 hPa | 0 mm | - | 456 W/m² | - |
| 1777845933 | 28.33° C | 99% | 1022.6 hPa | 0 mm | - | 427 W/m² | - |
| 1777845630 | 28.89° C | 99% | 1022.5 hPa | 0 mm | - | 456 W/m² | - |
| 1777845327 | 27.78° C | 99% | 1022.3 hPa | 0 mm | - | 378 W/m² | - |
| 1777845024 | 27.78° C | 99% | 1022.5 hPa | 0 mm | - | 459 W/m² | - |
| 1777844722 | 27.78° C | 99% | 1022.6 hPa | 0 mm | - | 493 W/m² | - |
| 1777844418 | 28.89° C | 99% | 1022.6 hPa | 0 mm | - | 453 W/m² | - |
| 1777844117 | 28.89° C | 99% | 1022.7 hPa | 0 mm | - | 493 W/m² | - |
| 1777843813 | 28.33° C | 99% | 1022.4 hPa | 0 mm | - | 527 W/m² | - |
| 1777843510 | 29.44° C | 99% | 1023.1 hPa | 0 mm | - | 481 W/m² | - |
| 1777843208 | 28.89° C | 99% | 1022.8 hPa | 0 mm | - | 242 W/m² | - |
| 1777842905 | 28.33° C | 99% | 1022.9 hPa | 0 mm | - | 237 W/m² | - |
| 1777842600 | 28.89° C | 99% | 1023.2 hPa | 0 mm | - | 333 W/m² | - |
| 1777842298 | 28.33° C | 99% | 1023.1 hPa | 0 mm | - | 560 W/m² | - |
* Rain latest hour (hover to see other rain measurements)
** Current wind speed in m/s (hover to see current wind gust speed)